Overview Statistics Trail Chart Weather Telemetry Raw packets
 

This is the latest recevied weather packets stored in our database for station/object KI5NXU. If no packets are shown the sender has not sent any weather packets the latest 10 day(s).

<< 17 18 19 20 21 22 23 >>
Time Temp. Humidity Pressure Rain* Wind** Luminosity Snow
1788271113 27.78° C 64% 1017.1 hPa 0 mm - 169 W/m² -
1788270808 27.78° C 64% 1017.2 hPa 0 mm - 156 W/m² -
1788270504 27.78° C 63% 1017.2 hPa 0 mm - 152 W/m² -
1788270199 27.78° C 63% 1017.2 hPa 0 mm - 137 W/m² -
1788269893 28.33° C 62% 1017.3 hPa 0 mm - 124 W/m² -
1788269592 27.78° C 63% 1017.1 hPa 0 mm - 89 W/m² -
1788269290 27.78° C 63% 1017.2 hPa 0 mm - 74 W/m² -
1788268986 26.67° C 66% 1017.2 hPa 0 mm - 67 W/m² -
1788268680 26.11° C 67% 1017.1 hPa 0 mm - 60 W/m² -
1788268380 26.11° C 66% 1017.2 hPa 0 mm - 55 W/m² -
1788268074 25° C 68% 1017.1 hPa 0 mm - 44 W/m² -
1788267769 25° C 69% 1017 hPa 0 mm - 38 W/m² -
1788267467 24.44° C 69% 1017 hPa 0 mm - 34 W/m² -
1788267162 23.89° C 69% 1017.1 hPa 0 mm - 31 W/m² -
1788266862 24.44° C 68% 1016.8 hPa 0 mm - 25 W/m² -
1788266556 24.44° C 68% 1016.7 hPa 0 mm - 24 W/m² -
1788266256 24.44° C 69% 1016.8 hPa 0 mm - 21 W/m² -
1788265951 24.44° C 68% 1017 hPa 0 mm - 17 W/m² -
1788265650 24.44° C 68% 1016.8 hPa 0 mm - 13 W/m² -
1788265345 24.44° C 69% 1016.4 hPa 0 mm - 10 W/m² -
1788265039 24.44° C 69% 1016.4 hPa 0 mm - 6 W/m² -
1788264735 24.44° C 68% 1016.3 hPa 0 mm - 2 W/m² -
1788264434 24.44° C 68% 1016.3 hPa 0 mm - 1 W/m² -
1788264130 24.44° C 68% 1016.3 hPa 0 mm - 0 W/m² -
1788263824 24.44° C 68% 1016.3 hPa 0 mm - 0 W/m² -

* Rain latest hour (hover to see other rain measurements)
** Current wind speed in m/s (hover to see current wind gust speed)